Twin Falls, ID

8:25 AM MST on January 24, 2017 (GMT -0700)
Joslin Field-Magic Valley Regional

Weather History for KTWF - May, 2014

Change the Weather History Date:

Thursday, May 8, 2014

  Actual Average Record
Temperature  
Mean Temperature 54 °F -  
Max Temperature 67 °F 68 °F 89 °F (1987)
Min Temperature 40 °F 41 °F 24 °F (2002)
Degree Days  
Heating Degree Days 11 11  
Month to date heating degree days 56 97  
Since 1 July heating degree days 5380 5895  
Cooling Degree Days 0 0  
Month to date cooling degree days 8 0  
Year to date cooling degree days 8 1  
Growing Degree Days 4 (Base 50)    
Moisture  
Dew Point 29 °F    
Average Humidity 40    
Maximum Humidity 60    
Minimum Humidity 20    
Precipitation  
Precipitation 0.04 in 0.04 in 0.50 in (2003)
Month to date precipitation 0.23 0.39  
Year to date precipitation 5.18 4.36  
Sea Level Pressure  
Sea Level Pressure 29.80 in    
Wind  
Wind Speed 11 mph (SW)    
Max Wind Speed 24 mph    
Max Gust Speed 31 mph    
Visibility 10 miles    
Events Rain    
T = Trace of Precipitation, MM = Missing Value Source: NWS Daily Summary

Daily Weather History Graph

Daily Weather History Graph

Search for Another Location

Airport or City:

Trip Planner

Search our weather history database for the weather conditions in past years. The results will help you decide how hot, cold, wet, or windy it might be!

Date:

Astronomy

May. 08, 2014 Rise Set
Actual Time 6:23 AM MDT 8:45 PM MDT
Civil Twilight 5:52 AM MDT 9:17 PM MDT
Nautical Twilight 5:13 AM MDT 9:56 PM MDT
Astronomical Twilight 4:30 AM MDT 10:40 PM MDT
Moon 2:42 PM MDT (5/8) 3:05 AM MDT (5/8)
Length of Visible Light 15h 24m
Length of Day
14h 21m
Waxing Gibbous, 65% of the Moon is Illuminated
May 8
Waxing Gibbous
May 14
Full
May 21
Last Quarter
May 28
New
Jun 5
First Quarter

Hourly Weather History & Observations

Time (MDT) Temp. Windchill Dew Point Humidity Pressure Visibility Wind Dir Wind Speed Gust Speed Precip Events Conditions
2:53 AM 43.0 °F 37.2 °F 28.0 °F 56% 29.81 in 10.0 mi SSW 10.4 mph - N/A   Clear
3:53 AM 41.0 °F 33.9 °F 28.9 °F 62% 29.81 in 10.0 mi SSW 12.7 mph - N/A   Clear
4:53 AM 41.0 °F 33.5 °F 28.0 °F 60% 29.83 in 10.0 mi South 13.8 mph - N/A   Clear
5:53 AM 43.0 °F 35.7 °F 28.0 °F 56% 29.84 in 10.0 mi SSW 15.0 mph - N/A   Clear
6:53 AM 43.0 °F 36.4 °F 28.0 °F 56% 29.86 in 10.0 mi SSW 12.7 mph - N/A   Clear
7:53 AM 46.9 °F - 30.0 °F 52% 29.86 in 10.0 mi South 10.4 mph - N/A   Clear
8:53 AM 51.1 °F - 30.0 °F 44% 29.87 in 10.0 mi SW 12.7 mph - N/A   Clear
9:53 AM 55.0 °F - 28.0 °F 35% 29.87 in 10.0 mi West 11.5 mph - N/A   Mostly Cloudy
11:53 AM 59.0 °F - 28.0 °F 31% 29.86 in 10.0 mi West 5.8 mph - N/A   Scattered Clouds
12:53 PM 61.0 °F - 28.9 °F 30% 29.85 in 10.0 mi Variable 3.5 mph - N/A   Clear
1:53 PM 63.0 °F - 27.0 °F 26% 29.82 in 10.0 mi WNW 6.9 mph - N/A   Partly Cloudy
3:53 PM 64.9 °F - 25.0 °F 22% 29.77 in 10.0 mi Calm Calm - N/A   Overcast
4:53 PM 66.0 °F - 26.1 °F 22% 29.74 in 10.0 mi SW 13.8 mph 19.6 mph N/A   Overcast
5:53 PM 66.9 °F - 25.0 °F 21% 29.73 in 10.0 mi SSW 12.7 mph 21.9 mph N/A   Mostly Cloudy
6:53 PM 64.9 °F - 25.0 °F 22% 29.73 in 10.0 mi WSW 17.3 mph 21.9 mph N/A   Overcast
7:53 PM 63.0 °F - 26.1 °F 25% 29.72 in 10.0 mi SW 13.8 mph - N/A   Mostly Cloudy
8:53 PM 60.1 °F - 28.9 °F 31% 29.72 in 10.0 mi SW 15.0 mph - N/A   Overcast
9:53 PM 60.1 °F - 30.0 °F 32% 29.73 in 10.0 mi West 16.1 mph - N/A   Overcast
10:53 PM 55.9 °F - 36.0 °F 47% 29.75 in 10.0 mi West 15.0 mph - N/A   Overcast
11:53 PM 52.0 °F - 39.9 °F 63% 29.76 in 10.0 mi NW 9.2 mph - 0.00 in Rain Light Rain